Location: Santa Cristina
(46.5667°N, 11.7167°E)
Time: 03:27:14
(UTC+00:00)

ADEOS II - Pass Details

Date: 21 April 2021
Orbit: 798 x 801 km, 98.6° (Epoch: 10 May)

Event Time Altitude Azimuth Distance (km) Brightness Sun altitude
Rises 03:06:20 0° 1° (N) 3,319 5.8 -11.6°
Reaches altitude 10° 03:09:22 10° 343° (NNW) 2,384 4.7 -11.1°
Maximum altitude 03:12:47 18° 302° (WNW) 1,891 3.8 -10.6°
Enters shadow 03:15:59 11° 263° (W) 2,327 3.9 -10.1°
